Columbia, SC

9:20 PM EDT on August 27, 2016 (GMT -0400)
Columbia Owens Downtown

Weather History for KCUB - August, 2013

Change the Weather History Date:

Tuesday, August 27, 2013

  Actual Average Record
Temperature  
Mean Temperature 76 °F 80 °F  
Max Temperature 90 °F 90 °F 98 °F (2011)
Min Temperature 62 °F 71 °F 62 °F (2013)
Degree Days  
Heating Degree Days 0 0  
Month to date heating degree days 0 0  
Since 1 June heating degree days 0 0  
Since 1 July heating degree days 0 0  
Cooling Degree Days 11 15  
Month to date cooling degree days 393 443  
Year to date cooling degree days 1660 1759  
Since 1 June cooling degree days 1350 1423  
Growing Degree Days 26 (Base 50)    
Moisture  
Dew Point 64 °F    
Average Humidity 70    
Maximum Humidity 93    
Minimum Humidity 46    
Precipitation  
Precipitation 0.00 in 0.16 in 0.47 in (2002)
Month to date precipitation 7.27 4.46  
Year to date precipitation 42.17 31.37  
Sea Level Pressure  
Sea Level Pressure 30.08 in    
Wind  
Wind Speed 1 mph (NW)    
Max Wind Speed 9 mph    
Max Gust Speed 13 mph    
Visibility 10 miles    
Events      
T = Trace of Precipitation, MM = Missing Value Source: NWS Daily Summary

Daily Weather History Graph

Daily Weather History Graph

Search for Another Location

Airport or City:

Trip Planner

Search our weather history database for the weather conditions in past years. The results will help you decide how hot, cold, wet, or windy it might be!

Date:

Astronomy

Aug. 27, 2013 Rise Set
Actual Time 6:54 AM EDT 7:55 PM EDT
Civil Twilight 6:28 AM EDT 8:21 PM EDT
Nautical Twilight 5:57 AM EDT 8:52 PM EDT
Astronomical Twilight 5:26 AM EDT 9:23 PM EDT
Moon No Moon Rise 1:30 PM EDT (8/27)
Length of Visible Light 13h 53m
Length of Day
13h 01m
Waning Gibbous, 57% of the Moon is Illuminated
Aug 27
Waning Gibbous
Aug 28
Last Quarter
Sep 5
New
Sep 12
First Quarter
Sep 19
Full

Hourly Weather History & Observations

Time (EDT) Temp. Heat Index Dew Point Humidity Pressure Visibility Wind Dir Wind Speed Gust Speed Precip Events Conditions
12:53 AM 64.0 °F - 60.1 °F 87% 30.16 in 10.0 mi Calm Calm - N/A   Clear
1:53 AM 63.0 °F - 60.1 °F 90% 30.16 in 10.0 mi Calm Calm - N/A   Clear
2:53 AM 63.0 °F - 60.1 °F 90% 30.14 in 10.0 mi SSE 4.6 mph - N/A   Clear
3:53 AM 63.0 °F - 60.1 °F 90% 30.13 in 10.0 mi Calm Calm - N/A   Clear
4:53 AM 63.0 °F - 61.0 °F 93% 30.12 in 10.0 mi Calm Calm - N/A   Mostly Cloudy
5:53 AM 63.0 °F - 61.0 °F 93% 30.12 in 10.0 mi Calm Calm - N/A   Clear
6:53 AM 63.0 °F - 60.1 °F 90% 30.12 in 10.0 mi Calm Calm - N/A   Clear
7:53 AM 64.0 °F - 60.1 °F 87% 30.12 in 10.0 mi Calm Calm - N/A   Clear
8:53 AM 69.1 °F - 61.0 °F 75% 30.12 in 10.0 mi Calm Calm - N/A   Clear
9:53 AM 75.9 °F - 64.0 °F 67% 30.11 in 10.0 mi Calm Calm - N/A   Clear
10:53 AM 82.0 °F 83.1 °F 63.0 °F 52% 30.11 in 10.0 mi NW 8.1 mph - N/A   Clear
11:53 AM 84.0 °F 85.4 °F 64.0 °F 51% 30.09 in 10.0 mi WNW 6.9 mph - N/A   Clear
12:53 PM 87.1 °F 88.3 °F 64.0 °F 46% 30.09 in 10.0 mi Variable 5.8 mph - N/A   Clear
1:53 PM 87.1 °F 88.9 °F 64.9 °F 48% 30.07 in 10.0 mi Calm Calm - N/A   Clear
2:53 PM 88.0 °F 89.6 °F 64.9 °F 46% 30.05 in 10.0 mi Calm Calm - N/A   Mostly Cloudy
3:53 PM 87.1 °F 88.9 °F 64.9 °F 48% 30.03 in 10.0 mi Calm Calm - N/A   Partly Cloudy
4:53 PM 88.0 °F 90.3 °F 66.0 °F 48% 30.02 in 10.0 mi Calm Calm - N/A   Partly Cloudy
5:53 PM 88.0 °F 89.6 °F 64.9 °F 46% 30.01 in 10.0 mi Calm Calm - N/A   Clear
6:53 PM 87.1 °F 89.9 °F 66.9 °F 51% 30.02 in 10.0 mi Calm Calm - N/A   Clear
7:53 PM 84.0 °F 87.0 °F 68.0 °F 58% 30.02 in 10.0 mi NNW 3.5 mph - N/A   Clear
8:53 PM 79.0 °F - 70.0 °F 74% 30.02 in 10.0 mi Calm Calm - N/A   Clear
9:53 PM 77.0 °F - 70.0 °F 79% 30.03 in 9.0 mi Calm Calm - N/A   Clear
10:53 PM 75.9 °F - 71.1 °F 85% 30.04 in 7.0 mi Calm Calm - N/A   Clear
11:53 PM 75.9 °F - 69.1 °F 79% 30.04 in 8.0 mi Calm Calm - N/A   Clear